Alexander City, AL

9:26 PM CST on December 11, 2019 (GMT -0600)
Russell

Weather History for KALX - October, 2019

Change the Weather History Date:

Wednesday, October 2, 2019

  Actual Average (WUND) Record (WUND)
Temperature  
Mean Temperature 82 °F -  
Max Temperature 94 °F - - (-1)
Min Temperature 69 °F - - (-1)
Cooling Degree Days 16    
Growing Degree Days 32 (Base 50)    
Moisture  
Dew Point 69 °F    
Average Humidity 71    
Maximum Humidity 93    
Minimum Humidity 40    
Precipitation  
Precipitation 0.00 in - - ()
Sea Level Pressure  
Sea Level Pressure 30.03 in    
Wind  
Wind Speed 1 mph (North)    
Max Wind Speed 9 mph    
Max Gust Speed -    
Visibility 10 miles    
Events Rain    
Averages and records for this station are not official NWS values.
T = Trace of Precipitation, MM = Missing Value Source: NWS Daily Summary

Daily Weather History Graph

Daily Weather History Graph

Search for Another Location

Airport or City:

Astronomy

Oct. 02, 2019 Rise Set
Actual Time 6:38 AM CDT 6:27 PM CDT
Civil Twilight 6:13 AM CDT 6:52 PM CDT
Nautical Twilight 5:45 AM CDT 7:20 PM CDT
Astronomical Twilight 5:16 AM CDT 7:49 PM CDT
Moon 10:50 AM CDT (10/2) 9:34 PM CDT (10/2)
Length of Visible Light 12h 38m
Length of Day
11h 48m
Waxing Crescent, 20% of the Moon is Illuminated
Oct 2
Waxing Crescent
Oct 5
First Quarter
Oct 13
Full
Oct 21
Last Quarter
Oct 27
New

Hourly Weather History & Observations

Time (CDT) Temp. Heat Index Dew Point Humidity Pressure Visibility Wind Dir Wind Speed Gust Speed Precip Events Conditions
12:15 AM 73.4 °F - 69.6 °F 88% 30.04 in 10.0 mi Calm Calm - N/A   Clear
12:35 AM 72.7 °F - 68.7 °F 87% 30.03 in 10.0 mi Calm Calm - N/A   Clear
12:55 AM 73.2 °F - 70.0 °F 90% 30.04 in 10.0 mi Calm Calm - N/A   Clear
1:15 AM 72.9 °F - 69.8 °F 90% 30.04 in 10.0 mi Calm Calm - N/A   Clear
1:35 AM 71.4 °F - 68.4 °F 90% 30.04 in 10.0 mi Calm Calm - N/A   Clear
2:15 AM 72.0 °F - 68.5 °F 89% 30.04 in 10.0 mi Calm Calm - N/A   Clear
2:35 AM 71.2 °F - 68.4 °F 91% 30.04 in 10.0 mi Calm Calm - N/A   Clear
2:55 AM 71.4 °F - 68.4 °F 90% 30.03 in 10.0 mi Calm Calm - N/A   Clear
3:15 AM 70.9 °F - 68.2 °F 91% 30.03 in 10.0 mi Calm Calm - N/A   Clear
3:55 AM 70.0 °F - 67.6 °F 92% 30.04 in 10.0 mi Calm Calm - N/A   Clear
4:15 AM 69.4 °F - 67.3 °F 93% 30.04 in 10.0 mi Calm Calm - N/A   Clear
4:35 AM 70.3 °F - 67.6 °F 91% 30.04 in 10.0 mi Calm Calm - N/A   Clear
4:55 AM 70.7 °F - 68.2 °F 92% 30.04 in 10.0 mi Calm Calm - N/A   Clear
5:15 AM 70.5 °F - 67.8 °F 91% 30.05 in 10.0 mi Calm Calm - N/A   Clear
5:35 AM 70.5 °F - 67.8 °F 91% 30.05 in 10.0 mi Calm Calm - N/A   Clear
5:55 AM 69.6 °F - 67.1 °F 92% 30.06 in 10.0 mi Calm Calm - N/A   Clear
6:15 AM 70.5 °F - 68.0 °F 92% 30.06 in 10.0 mi Calm Calm - N/A   Clear
6:35 AM 70.3 °F - 67.6 °F 91% 30.06 in 7.0 mi Calm Calm - N/A   Clear
6:55 AM 70.2 °F - 67.6 °F 92% 30.07 in 7.0 mi Calm Calm - N/A   Clear
7:15 AM 71.4 °F - 68.4 °F 90% 30.08 in 10.0 mi Calm Calm - N/A   Clear
7:35 AM 71.4 °F - 68.9 °F 92% 30.08 in 10.0 mi Calm Calm - N/A   Clear
7:55 AM 73.6 °F - 69.8 °F 88% 30.09 in 10.0 mi Calm Calm - N/A   Clear
8:15 AM 76.6 °F - 70.0 °F 80% 30.09 in 10.0 mi Calm Calm - N/A   Clear
8:35 AM 78.6 °F - 70.2 °F 75% 30.09 in 10.0 mi Calm Calm - N/A   Clear
8:55 AM 80.2 °F 83.2 °F 69.4 °F 69% 30.09 in 10.0 mi SW 4.6 mph - N/A   Clear
9:15 AM 81.5 °F 84.9 °F 69.8 °F 67% 30.09 in 10.0 mi SSW 4.6 mph - N/A   Clear
9:35 AM 83.3 °F 87.6 °F 70.3 °F 65% 30.09 in 10.0 mi WSW 3.5 mph - N/A   Clear
9:55 AM 84.2 °F 88.4 °F 70.0 °F 62% 30.09 in 10.0 mi South 3.5 mph - N/A   Clear
10:15 AM 85.6 °F 90.1 °F 70.0 °F 59% 30.09 in 10.0 mi SSW 4.6 mph - N/A   Clear
10:35 AM 86.7 °F 91.4 °F 69.8 °F 57% 30.09 in 10.0 mi SSW 3.5 mph - N/A   Clear
11:15 AM 87.6 °F 91.1 °F 68.2 °F 52% 30.08 in 10.0 mi Calm Calm - N/A   Clear
11:35 AM 88.7 °F 92.6 °F 68.2 °F 51% 30.07 in 10.0 mi North 3.5 mph - N/A   Clear
11:55 AM 90.1 °F 93.5 °F 67.3 °F 47% 30.07 in 10.0 mi NNE 3.5 mph - N/A   Clear
12:15 PM 89.8 °F 92.9 °F 66.9 °F 47% 30.05 in 10.0 mi Calm Calm - N/A   Clear
12:35 PM 90.9 °F 94.4 °F 67.3 °F 46% 30.04 in 10.0 mi NNW 3.5 mph - N/A   Clear
12:55 PM 90.7 °F 94.5 °F 67.8 °F 47% 30.04 in 10.0 mi Calm Calm - N/A   Clear
1:15 PM 92.3 °F 96.5 °F 68.0 °F 45% 30.03 in 10.0 mi NNE 3.5 mph - N/A   Clear
1:35 PM 91.6 °F 95.2 °F 67.3 °F 45% 30.01 in 10.0 mi Calm Calm - N/A   Scattered Clouds
1:55 PM 91.9 °F 95.4 °F 67.3 °F 44% 30.01 in 10.0 mi North 4.6 mph - N/A   Clear
2:15 PM 92.8 °F 96.6 °F 67.3 °F 43% 30.00 in 10.0 mi WSW 3.5 mph - N/A   Scattered Clouds
2:35 PM 93.2 °F 96.7 °F 66.7 °F 42% 29.99 in 10.0 mi NW 3.5 mph - N/A   Clear
2:55 PM 94.6 °F 98.9 °F 67.6 °F 41% 29.98 in 10.0 mi ESE 3.5 mph - N/A   Clear
3:15 PM 93.9 °F 97.0 °F 66.6 °F 40% 29.98 in 10.0 mi NE 3.5 mph - N/A   Clear
3:35 PM 93.2 °F 96.7 °F 66.7 °F 42% 29.97 in 10.0 mi Calm Calm - N/A   Clear
3:55 PM 93.2 °F 96.2 °F 66.2 °F 41% 29.97 in 10.0 mi Calm Calm - N/A   Clear
4:15 PM 93.4 °F 98.1 °F 68.4 °F 44% 29.96 in 10.0 mi Calm Calm - N/A   Scattered Clouds
4:35 PM 93.4 °F 96.6 °F 66.6 °F 41% 29.96 in 10.0 mi Calm Calm - N/A   Scattered Clouds
4:55 PM 93.2 °F 96.7 °F 67.1 °F 42% 29.97 in 10.0 mi Calm Calm - N/A   Scattered Clouds
5:15 PM 92.7 °F 96.7 °F 67.8 °F 44% 29.97 in 10.0 mi Calm Calm - N/A   Scattered Clouds
5:35 PM 90.9 °F 97.8 °F 71.8 °F 53% 29.97 in 10.0 mi Calm Calm - N/A   Clear
5:55 PM 88.3 °F 95.4 °F 72.1 °F 59% 29.97 in 10.0 mi Calm Calm - N/A   Scattered Clouds
6:15 PM 85.6 °F 92.6 °F 73.0 °F 66% 29.97 in 10.0 mi Calm Calm - N/A   Clear
6:35 PM 84.9 °F 90.7 °F 71.8 °F 65% 29.97 in 10.0 mi Calm Calm - N/A   Clear
6:55 PM 84.0 °F 89.3 °F 71.4 °F 66% 29.98 in 10.0 mi Calm Calm - N/A   Scattered Clouds
7:15 PM 84.7 °F 89.1 °F 69.8 °F 61% 29.99 in 10.0 mi East 8.1 mph - N/A   Mostly Cloudy
7:35 PM 84.7 °F 89.1 °F 69.8 °F 61% 29.99 in 10.0 mi ESE 8.1 mph - N/A Rain Light Rain
7:55 PM 84.4 °F 88.5 °F 69.8 °F 61% 30.00 in 10.0 mi ESE 9.2 mph - N/A   Clear
8:15 PM 83.5 °F 87.2 °F 69.4 °F 62% 30.01 in 10.0 mi NE 6.9 mph - N/A Rain Rain
8:35 PM 81.0 °F 85.2 °F 72.0 °F 74% 29.99 in 10.0 mi NW 4.6 mph - N/A   Scattered Clouds
8:55 PM 79.0 °F - 73.6 °F 83% 30.00 in 10.0 mi Calm Calm - N/A   Clear
9:15 PM 78.1 °F - 73.6 °F 86% 30.00 in 10.0 mi Calm Calm - N/A   Clear
9:35 PM 77.7 °F - 73.2 °F 86% 30.00 in 10.0 mi Calm Calm - N/A   Clear
9:55 PM 77.0 °F - 73.9 °F 90% 30.01 in 10.0 mi Calm Calm - N/A   Clear
10:15 PM 77.2 °F - 73.4 °F 88% 30.01 in 10.0 mi Calm Calm - N/A   Clear
10:35 PM 75.9 °F - 73.6 °F 92% 30.01 in 10.0 mi Calm Calm - N/A   Clear
10:55 PM 74.5 °F - 72.1 °F 92% 30.01 in 10.0 mi Calm Calm - N/A   Clear
11:15 PM 75.0 °F - 72.5 °F 92% 30.01 in 10.0 mi Calm Calm - N/A   Clear
11:55 PM 74.3 °F - 72.0 °F 92% 30.01 in 10.0 mi Calm Calm - N/A   Clear